GW6025 Weather Reports


Display with metric or nautical units.
time (UTC)temp
F
wind
direction
speed
MPH
gust
MPH
rain 1hr
in
rain 24hr
in
rain mn
in
humidity
%
barometer
mb
20260504221119 81 228 2.0 8.0 0.00 0.00 0.00 36 1006.4
20260504220615 81 149 3.0 10.0 0.00 0.00 0.00 36 1006.4
20260504220113 81 260 9.0 13.0 0.00 0.00 0.00 35 1006.2
20260504215609 81 154 8.0 14.0 0.00 0.00 0.00 34 1006.5
20260504215107 81 239 8.0 10.0 0.00 0.00 0.00 34 1006.6
20260504214602 82 250 4.0 6.0 0.00 0.00 0.00 35 1006.3
20260504214059 82 204 3.0 8.0 0.00 0.00 0.00 36 1006.5
20260504213555 81 139 4.0 10.0 0.00 0.00 0.00 35 1006.5
20260504213052 82 196 4.0 18.0 0.00 0.00 0.00 35 1006.5
20260504212548 82 236 6.0 9.0 0.00 0.00 0.00 36 1006.5
20260504212046 82 154 3.0 9.0 0.00 0.00 0.00 35 1006.5
20260504211543 82 214 3.0 7.0 0.00 0.00 0.00 36 1006.5
20260504211039 82 186 3.0 9.0 0.00 0.00 0.00 35 1006.6
20260504210536 82 224 5.0 9.0 0.00 0.00 0.00 37 1006.6
20260504210033 82 142 2.0 11.0 0.00 0.00 0.00 36 1006.7
20260504205531 82 143 3.0 11.0 0.00 0.00 0.00 36 1006.7
20260504205029 81 225 3.0 8.0 0.00 0.00 0.00 37 1006.7
20260504204527 82 153 6.0 15.0 0.00 0.00 0.00 35 1006.9
20260504204026 82 152 3.0 9.0 0.00 0.00 0.00 35 1006.9
20260504203523 82 217 3.0 16.0 0.00 0.00 0.00 37 1006.9
20260504203020 81 268 7.0 11.0 0.00 0.00 0.00 37 1007.1
20260504202516 82 119 5.0 8.0 0.00 0.00 0.00 37 1007.1
20260504202013 82 231 4.0 9.0 0.00 0.00 0.00 38 1007.1
20260504201510 82 175 4.0 13.0 0.00 0.00 0.00 36 1007.4
20260504201008 81 113 5.0 9.0 0.00 0.00 0.00 36 1007.4
20260504200504 81 231 4.0 15.0 0.00 0.00 0.00 36 1007.4
20260504200000 82 348 5.0 9.0 0.00 0.00 0.00 35 1007.5
20260504195456 82 229 10.0 15.0 0.00 0.00 0.00 35 1007.7
20260504194953 82 225 3.0 8.0 0.00 0.00 0.00 36 1007.8
20260504194449 81 220 4.0 11.0 0.00 0.00 0.00 37 1008.0
20260504193945 82 232 5.0 13.0 0.00 0.00 0.00 34 1007.9
20260504193443 82 201 3.0 10.0 0.00 0.00 0.00 36 1007.9
20260504192942 82 191 10.0 16.0 0.00 0.00 0.00 35 1008.0
20260504192438 82 218 3.0 8.0 0.00 0.00 0.00 37 1008.1
20260504191937 81 224 1.0 4.0 0.00 0.00 0.00 39 1008.2
20260504191435 81 240 3.0 11.0 0.00 0.00 0.00 36 1008.3
20260504190935 81 217 4.0 10.0 0.00 0.00 0.00 35 1008.3
20260504190432 81 204 3.0 10.0 0.00 0.00 0.00 37 1008.3
20260504185928 81 140 2.0 15.0 0.00 0.00 0.00 37 1008.3
20260504185426 81 199 5.0 10.0 0.00 0.00 0.00 37 1008.4
20260504184921 81 108 5.0 14.0 0.00 0.00 0.00 35 1008.7
20260504184417 81 312 5.0 8.0 0.00 0.00 0.00 38 1008.6
20260504183914 80 216 4.0 7.0 0.00 0.00 0.00 41 1008.5
20260504183411 80 165 4.0 9.0 0.00 0.00 0.00 38 1008.5
20260504182909 80 294 9.0 13.0 0.00 0.00 0.00 37 1008.8
20260504182405 80 255 5.0 9.0 0.00 0.00 0.00 40 1009.1
20260504181902 79 245 6.0 11.0 0.00 0.00 0.00 39 1008.8
20260504181400 78 232 6.0 18.0 0.00 0.00 0.00 39 1008.9
20260504180858 78 232 6.0 11.0 0.00 0.00 0.00 39 1008.8
20260504180356 79 198 11.0 14.0 0.00 0.00 0.00 39 1009.1
20260504175854 79 171 10.0 16.0 0.00 0.00 0.00 39 1009.3
20260504175351 80 160 2.0 13.0 0.00 0.00 0.00 39 1009.0
20260504174849 80 139 9.0 16.0 0.00 0.00 0.00 38 1009.3
20260504174346 79 324 6.0 13.0 0.00 0.00 0.00 39 1009.1
20260504173843 79 205 4.0 10.0 0.00 0.00 0.00 38 1009.2
20260504173340 80 279 4.0 10.0 0.00 0.00 0.00 42 1009.5
20260504172837 80 202 4.0 9.0 0.00 0.00 0.00 39 1009.5
20260504172333 80 133 6.0 11.0 0.00 0.00 0.00 39 1009.8
20260504171829 79 147 5.0 13.0 0.00 0.00 0.00 40 1009.5
20260504171327 79 208 3.0 10.0 0.00 0.00 0.00 42 1009.6
20260504170824 79 195 5.0 8.0 0.00 0.00 0.00 41 1009.8
20260504170321 79 250 8.0 11.0 0.00 0.00 0.00 41 1009.7
20260504160239 77 185 3.0 10.0 0.00 0.00 0.00 48 1010.6
20260504150704 73 174 2.0 7.0 0.00 0.00 0.00 53 1011.0
20260504150201 73 188 5.0 9.0 0.00 0.00 0.00 51 1010.9
20260504141130 69 166 0.0 6.0 0.00 0.00 0.00 59 1011.2
20260504140627 69 135 4.0 8.0 0.00 0.00 0.00 59 1011.1
20260504140122 69 91 4.0 9.0 0.00 0.00 0.00 60 1011.1
20260504130551 64 180 1.0 6.0 0.00 0.00 0.00 67 1011.0
20260504110438 61 174 0.0 3.0 0.00 0.00 0.00 68 1009.9
20260504100355 63 163 0.0 4.0 0.00 0.00 0.00 64 1010.2
20260504081748 63 175 3.0 4.0 0.00 0.00 0.00 61 1010.4
20260504081244 63 199 1.0 3.0 0.00 0.00 0.00 61 1010.6
20260504080741 63 179 1.0 2.0 0.00 0.00 0.00 60 1010.4
20260504080237 63 153 0.0 3.0 0.00 0.00 0.00 60 1010.5
20260504070205 62 171 2.0 4.0 0.00 0.00 0.00 59 1011.0
20260504060125 62 190 2.0 2.0 0.00 0.00 0.00 58 1011.8
20260504050554 62 169 0.0 1.0 0.00 0.00 0.00 58 1012.2
20260504045547 62 154 0.0 2.0 0.00 0.00 0.00 57 1011.9
20260504045043 62 162 1.0 2.0 0.00 0.00 0.00 57 1012.2
20260504044540 62 163 1.0 2.0 0.00 0.00 0.00 57 1012.1
20260504044037 62 161 1.0 2.0 0.00 0.00 0.00 56 1012.0
20260504043534 62 157 0.0 4.0 0.00 0.00 0.00 56 1012.1
20260504043032 63 153 1.0 1.0 0.00 0.00 0.00 56 1012.0
20260504042528 63 157 1.0 2.0 0.00 0.00 0.00 56 1012.1
20260504042025 63 162 0.0 2.0 0.00 0.00 0.00 56 1012.1
20260504041521 63 152 1.0 2.0 0.00 0.00 0.00 55 1012.1
20260504041017 63 140 2.0 2.0 0.00 0.00 0.00 54 1012.0
20260504040515 63 165 0.0 2.0 0.00 0.00 0.00 54 1012.0
20260504040012 63 148 1.0 3.0 0.00 0.00 0.00 55 1012.0
20260504035509 63 170 2.0 3.0 0.00 0.00 0.00 54 1012.1
20260504035005 63 159 1.0 2.0 0.00 0.00 0.00 54 1012.0
20260504034503 63 162 1.0 2.0 0.00 0.00 0.00 54 1012.2
20260504033959 63 148 1.0 2.0 0.00 0.00 0.00 53 1012.3
20260504033457 63 157 0.0 2.0 0.00 0.00 0.00 53 1012.1
20260504032954 63 160 0.0 2.0 0.00 0.00 0.00 53 1012.3
20260504032451 63 171 1.0 2.0 0.00 0.00 0.00 53 1012.4
20260504031948 63 154 1.0 2.0 0.00 0.00 0.00 53 1012.5
20260504031445 63 161 0.0 2.0 0.00 0.00 0.00 53 1012.5
20260504030941 63 167 0.0 0.0 0.00 0.00 0.00 54 1012.5
20260504030438 63 167 0.0 1.0 0.00 0.00 0.00 55 1012.5
20260504025934 62 154 0.0 1.0 0.00 0.00 0.00 56 1012.6
20260504025431 62 164 0.0 0.0 0.00 0.00 0.00 57 1012.5
20260504024928 62 164 0.0 1.0 0.00 0.00 0.00 54 1012.4
20260504024425 63 169 0.0 0.0 0.00 0.00 0.00 55 1012.4
20260504023922 63 171 0.0 0.0 0.00 0.00 0.00 55 1012.5
20260504023419 63 171 0.0 0.0 0.00 0.00 0.00 55 1012.3
20260504022914 63 171 0.0 0.0 0.00 0.00 0.00 54 1012.4
20260504022411 63 171 0.0 0.0 0.00 0.00 0.00 56 1012.2
20260504021908 63 171 0.0 0.0 0.00 0.00 0.00 55 1012.2
20260504021405 63 171 0.0 0.0 0.00 0.00 0.00 55 1012.4
20260504020902 63 171 0.0 0.0 0.00 0.00 0.00 54 1012.4
20260504020359 64 171 0.0 0.0 0.00 0.00 0.00 53 1012.4
20260504015855 64 171 0.0 0.0 0.00 0.00 0.00 52 1012.2
20260504015351 64 171 0.0 0.0 0.00 0.00 0.00 52 1012.2
20260504014847 64 171 0.0 0.0 0.00 0.00 0.00 51 1012.2
20260504014343 64 171 0.0 0.0 0.00 0.00 0.00 50 1012.1
20260504013841 65 171 0.0 0.0 0.00 0.00 0.00 50 1012.0
20260504013339 65 171 0.0 0.0 0.00 0.00 0.00 48 1012.0
20260504012835 66 171 0.0 0.0 0.00 0.00 0.00 48 1012.0
20260504012333 67 171 0.0 0.0 0.00 0.00 0.00 46 1012.0
20260504011830 67 171 0.0 0.0 0.00 0.00 0.00 44 1011.9
20260504011327 68 171 0.0 0.0 0.00 0.00 0.00 43 1011.9
20260504010823 68 157 0.0 1.0 0.00 0.00 0.00 43 1012.0
20260504010318 68 168 0.0 2.0 0.00 0.00 0.00 41 1012.0
20260504005815 69 160 0.0 0.0 0.00 0.00 0.00 41 1012.0
20260504005312 69 161 0.0 0.0 0.00 0.00 0.00 41 1012.0
20260504004810 70 165 1.0 1.0 0.00 0.00 0.00 41 1012.0
20260504004307 70 163 0.0 2.0 0.00 0.00 0.00 40 1012.0
20260504003803 71 180 1.0 1.0 0.00 0.00 0.00 39 1012.2
20260504003300 71 165 1.0 2.0 0.00 0.00 0.00 38 1011.9
20260504002757 72 173 1.0 1.0 0.00 0.00 0.00 37 1012.0
20260504002254 72 170 0.0 1.0 0.00 0.00 0.00 37 1012.1
20260504001752 73 181 2.0 4.0 0.00 0.00 0.00 36 1012.0
20260504001248 73 150 1.0 2.0 0.00 0.00 0.00 36 1012.1
20260504000745 73 206 1.0 3.0 0.00 0.00 0.00 36 1011.9
20260504000242 74 164 1.0 6.0 0.00 0.00 0.00 35 1012.1
20260503235740 74 172 1.0 4.0 0.00 0.00 0.00 35 1012.2
20260503235237 74 162 1.0 3.0 0.00 0.00 0.00 35 1012.3
20260503234735 74 205 1.0 2.0 0.00 0.00 0.00 35 1012.2
20260503234233 74 139 2.0 3.0 0.00 0.00 0.00 35 1012.3
20260503233729 74 199 1.0 7.0 0.00 0.00 0.00 34 1012.3
20260503233225 75 120 2.0 4.0 0.00 0.00 0.00 34 1012.2
20260503232722 75 202 1.0 4.0 0.00 0.00 0.00 33 1012.4
20260503232219 75 204 1.0 6.0 0.00 0.00 0.00 33 1012.4
20260503231718 75 205 2.0 3.0 0.00 0.00 0.00 33 1012.4
20260503231214 75 158 1.0 3.0 0.00 0.00 0.00 33 1012.5
20260503230710 75 133 1.0 4.0 0.00 0.00 0.00 32 1012.5
20260503230208 75 204 5.0 8.0 0.00 0.00 0.00 31 1012.5
20260503225705 75 152 0.0 4.0 0.00 0.00 0.00 32 1012.6
20260503225205 75 181 1.0 4.0 0.00 0.00 0.00 32 1012.6
20260503224703 76 188 1.0 7.0 0.00 0.00 0.00 31 1012.8
20260503224200 76 113 0.0 4.0 0.00 0.00 0.00 32 1012.9
20260503223658 76 188 4.0 8.0 0.00 0.00 0.00 32 1013.0
20260503223155 75 156 1.0 4.0 0.00 0.00 0.00 32 1012.9
20260503222652 76 196 4.0 7.0 0.00 0.00 0.00 31 1012.7
20260503222149 76 274 3.0 8.0 0.00 0.00 0.00 30 1013.1
20260503221648 75 195 1.0 3.0 0.00 0.00 0.00 32 1013.0
20260503221145 76 217 4.0 8.0 0.00 0.00 0.00 30 1013.3